Content
SEND FEEDBACK

Daily
Averages
Monthly
Summary
United States of America

DIME BOX, TEXAS


Home > North America > United States > Texas
Elevation: 330 feet     Latitude: 30 21N     Longitude: 096 50W

WEATHER
 
SELECT A DAY
Number of Records: 217,270;   Date Range: 5/31/05 - 8/12/14
 
SHARE

PRINT THIS DATA

[ ← Previous Day ]
WEATHER ALMANAC - FEBRUARY 13, 2013
[ Next Day → ]
[ °C ]   °F
Weather ElementAverageHighLow
Temperature47.2 °F57.2 °F (3:55 pm)39.2 °F (6:35 am)
Dewpoint36.1 °F39.2 °F (12:35 am)33.8 °F (4:55 am)
Humidity66.6 %87 % (6:35 am)44 % (4:15 pm)
Barometer30.13 in30.19 in (9:15 am)30.07 in (12:55 am)
Wind Speed7 mph19.6 mph (12:55 am)
Wind Gust26.5 mph (12:55 am)
Weather ElementAverage
Visibility10 mi
Wind DirectionWSW (232 °)

Weather ElementTotal
Precipitation---
Heating Degree Days16.8 (Base 65)
Averaged from 70 records on February 13, 2013
WEATHER CONDITIONS BREAKOUT
WIND DIRECTION BREAKOUT
WEATHER BY HOUR - FEBRUARY 13, 2013
[ °C ]   °F
Local TimeTemperatureDewpointHumidityBarometerVisibilityWind DirectionWind SpeedGust SpeedPrecipitationEventsConditions
12:35 AM46.4 °F39.2 °F76 %30.08 in10.0 miNW (310°)11.5 mphClear
12:55 AM46.4 °F39.2 °F76 %30.07 in10.0 miNW (310°)19.6 mph26.5 mphMostly Cloudy
1:15 AM46.4 °F37.4 °F71 %30.09 in10.0 miWNW (300°)12.7 mph23.0 mphMostly Cloudy
1:35 AM44.6 °F37.4 °F76 %30.10 in10.0 miWNW (300°)10.4 mph21.9 mphClear
1:55 AM44.6 °F35.6 °F71 %30.09 in10.0 miWNW (300°)10.4 mph18.4 mphClear
2:15 AM44.6 °F37.4 °F76 %30.11 in10.0 miWNW (300°)10.4 mphClear
2:35 AM44.6 °F35.6 °F71 %30.11 in10.0 miWNW (300°)13.8 mph17.3 mphClear
2:55 AM42.8 °F35.6 °F76 %30.11 in10.0 miNW (310°)9.2 mphClear
3:15 AM42.8 °F35.6 °F76 %30.10 in10.0 miNW (320°)13.8 mph18.4 mphClear
3:35 AM42.8 °F35.6 °F76 %30.11 in10.0 miNW (320°)8.1 mph18.4 mphScattered Clouds
3:55 AM42.8 °F35.6 °F76 %30.10 in10.0 miNW (320°)10.4 mphScattered Clouds
4:15 AM42.8 °F35.6 °F76 %30.11 in10.0 miNW (320°)11.5 mph19.6 mphClear
4:35 AM42.8 °F35.6 °F76 %30.10 in10.0 miNW (320°)13.8 mph19.6 mphClear
4:55 AM41.0 °F33.8 °F76 %30.10 in10.0 miNNW (330°)15.0 mph23.0 mphClear
5:15 AM41.0 °F33.8 °F76 %30.11 in10.0 miNW (320°)15.0 mph19.6 mphClear
5:35 AM41.0 °F35.6 °F81 %30.12 in10.0 miNNW (330°)10.4 mphClear
6:15 AM41.0 °F35.6 °F81 %30.14 in10.0 miNNW (330°)6.9 mphClear
6:35 AM39.2 °F35.6 °F87 %30.15 in10.0 miNW (320°)5.8 mphClear
6:55 AM39.2 °F35.6 °F87 %30.15 in10.0 miCalmClear
7:15 AM39.2 °F35.6 °F87 %30.16 in10.0 miCalmClear
7:35 AM39.2 °F35.6 °F87 %30.18 in10.0 miCalmClear
7:55 AM39.2 °F35.6 °F87 %30.17 in10.0 miNNW (330°)4.6 mphClear
8:15 AM41.0 °F35.6 °F81 %30.18 in10.0 miNW (320°)6.9 mphClear
8:35 AM42.8 °F35.6 °F76 %30.18 in10.0 miNW (320°)12.7 mphClear
8:55 AM42.8 °F35.6 °F76 %30.18 in10.0 miNW (320°)12.7 mphClear
9:15 AM44.6 °F35.6 °F71 %30.19 in10.0 miNNW (330°)13.8 mph19.6 mphPartly Cloudy
9:35 AM44.6 °F35.6 °F71 %30.19 in10.0 miNNW (340°)12.7 mph17.3 mphClear
9:55 AM46.4 °F35.6 °F66 %30.19 in10.0 miNNW (330°)11.5 mphClear
10:15 AM48.2 °F37.4 °F66 %30.18 in10.0 miNW (320°)12.7 mph17.3 mphClear
10:35 AM48.2 °F37.4 °F66 %30.19 in10.0 miNW (320°)12.7 mphClear
10:55 AM50.0 °F35.6 °F58 %30.19 in10.0 miNorth (360°)10.4 mphClear
11:15 AM50.0 °F37.4 °F62 %30.18 in10.0 miNW (320°)9.2 mphClear
11:35 AM51.8 °F37.4 °F58 %30.18 in10.0 miNW (320°)13.8 mphClear
11:55 AM51.8 °F37.4 °F58 %30.17 in10.0 miNNE (20°)6.9 mphClear
12:15 PM51.8 °F37.4 °F58 %30.16 in10.0 miNNW (330°)6.9 mphClear
12:35 PM53.6 °F37.4 °F54 %30.16 in10.0 miNNW (340°)8.1 mphClear
12:55 PM53.6 °F37.4 °F54 %30.15 in10.0 miNNW (340°)5.8 mphClear
1:15 PM53.6 °F37.4 °F54 %30.14 in10.0 miNorth (350°)8.1 mphPartly Cloudy
1:35 PM55.4 °F37.4 °F51 %30.12 in10.0 miNorth (350°)5.8 mphClear
1:55 PM55.4 °F39.2 °F54 %30.12 in10.0 miNW (310°)8.1 mphClear
2:15 PM55.4 °F39.2 °F54 %30.11 in10.0 miNNW (330°)6.9 mphClear
2:35 PM55.4 °F37.4 °F51 %30.10 in10.0 miNW (320°)4.6 mphClear
2:55 PM55.4 °F37.4 °F51 %30.10 in10.0 miNorth (350°)8.1 mphClear
3:15 PM55.4 °F37.4 °F51 %30.09 in10.0 miNorth (360°)5.8 mphClear
3:35 PM55.4 °F37.4 °F51 %30.09 in10.0 miNorth (350°)8.1 mphClear
3:55 PM57.2 °F37.4 °F48 %30.09 in10.0 miNNW (330°)6.9 mphClear
4:15 PM57.2 °F35.6 °F44 %30.09 in10.0 miNNW (330°)5.8 mphClear
4:35 PM57.2 °F35.6 °F44 %30.09 in10.0 miNorth (350°)6.9 mphClear
4:55 PM55.4 °F35.6 °F47 %30.09 in10.0 miNorth (360°)4.6 mphClear
5:15 PM55.4 °F35.6 °F47 %30.09 in10.0 miNorth (360°)6.9 mphClear
5:35 PM55.4 °F35.6 °F47 %30.09 in10.0 miNNE (20°)6.9 mphClear
5:55 PM53.6 °F33.8 °F47 %30.09 in10.0 miNorth (360°)5.8 mphClear
6:15 PM51.8 °F33.8 °F50 %30.09 in10.0 miNorth (350°)3.5 mphClear
6:35 PM51.8 °F33.8 °F50 %30.10 in10.0 miCalmClear
6:55 PM50.0 °F33.8 °F54 %30.10 in10.0 miCalmClear
7:15 PM48.2 °F33.8 °F58 %30.11 in10.0 miCalmClear
7:35 PM48.2 °F33.8 °F58 %30.11 in10.0 miCalmClear
7:55 PM48.2 °F33.8 °F58 %30.12 in10.0 miCalmClear
8:15 PM42.8 °F37.4 °F81 %30.12 in10.0 miCalmClear
8:35 PM44.6 °F35.6 °F71 %30.12 in10.0 miCalmClear
8:55 PM44.6 °F35.6 °F71 %30.13 in10.0 miNNW (340°)4.6 mphClear
9:15 PM46.4 °F35.6 °F66 %30.13 in10.0 miNNE (30°)4.6 mphClear
9:35 PM44.6 °F35.6 °F71 %30.13 in10.0 miNE (40°)4.6 mphClear
9:55 PM44.6 °F35.6 °F71 %30.13 in10.0 miNNE (30°)5.8 mphClear
10:15 PM44.6 °F35.6 °F71 %30.13 in10.0 miCalmClear
10:35 PM42.8 °F35.6 °F76 %30.14 in10.0 miCalmClear
10:55 PM42.8 °F35.6 °F76 %30.13 in10.0 miCalmClear
11:15 PM42.8 °F35.6 °F76 %30.13 in10.0 miCalmClear
11:35 PM41.0 °F35.6 °F81 %30.13 in10.0 miCalmClear
11:55 PM39.2 °F35.6 °F87 %30.13 in10.0 miCalmClear
Hourly data recorded from KRWV, located miles away from Dime Box, Texas







STORIES FROM OUR PARTNERS